[[{"header":{"parameterUnit":"m.s-1","parameterCategory":1,"la1":30.2991,"la2":30.254,"lo1":-89.0895,"lo2":-89.0444,"dy":0.0017,"dx":0.0017,"nx":28,"ny":28,"refTime":"2024-07-10T09:00:00:Z","depth":0,"parameterNumber":2,"parameterNumberName":"U-component_of_WINDS"},"data":[0,0,0,0,0,0,0,0,0,0,0,0,0,0,0,0,0,0,0,0,0,0,0,0,0,0,0,0,0,0,0,0,0,0,0,0,0,0,0,0,0,0,0,0,0,0,0,0,0,0,0,0,0,0,0,0,0,0,2.8393,2.8394,0,2.8471,2.8472,2.8473,2.8425,2.8423,2.8421,2.8419,2.8498,2.8502,2.8506,0,0,0,0,0,0,0,0,0,0,0,0,0,2.8201,2.8205,2.8393,2.8394,2.8395,2.8471,2.8472,2.8473,2.8426,2.8423,2.842,2.8418,2.8496,2.8501,2.8506,0,0,0,0,0,0,0,0,0,0,0,0,0,2.8282,2.8206,2.8392,2.838,2.838,2.8471,2.8472,2.8474,2.8426,2.8423,2.8419,2.8416,2.8495,2.8501,2.8507,2.8615,0,0,2.8526,2.8529,0,0,0,0,0,0,0,0,2.8278,2.8289,2.8381,2.8381,2.8381,2.8435,2.8434,2.8521,2.8427,2.8409,2.8419,2.8415,2.848,2.8487,2.8509,2.8618,2.8622,2.8527,2.8531,2.8534,2.8535,0,0,0,0,0,0,0,2.8272,2.8286,2.8424,2.8382,2.8382,2.8371,2.8378,2.845,2.8462,2.841,2.8407,2.8417,2.8479,2.8503,2.8511,2.8623,2.8527,2.8533,2.8536,2.8539,2.8826,2.8829,0,0,0,0,0,0,2.8268,2.8281,2.8421,2.8426,2.832,2.8377,2.8385,2.8421,2.8461,2.8464,2.842,2.8414,2.8494,2.8503,2.8513,2.8642,2.8534,2.854,2.8543,2.8822,2.8827,2.8831,0,0,0,0,0,0,2.8264,2.828,2.8418,2.8353,2.837,2.8384,2.8424,2.8424,2.8449,2.8469,2.847,2.8442,2.8492,2.8504,2.859,2.8644,2.8542,2.8548,2.8818,2.8823,2.8829,2.8901,0,0,0,0,0,0,2.8258,2.8279,2.832,2.8354,2.8373,2.8494,2.8427,2.8428,2.846,2.8454,2.849,2.8493,2.849,2.8581,2.8597,2.8651,2.8553,2.8813,2.882,2.8827,2.8894,2.8909,2.8921,0,0,0,0,0,2.8252,2.8337,2.8322,2.834,2.8425,2.8497,2.8508,2.8503,2.8464,2.8506,2.8519,2.8492,2.8636,2.859,2.8607,2.8665,2.8809,2.8818,2.8826,2.8888,2.8906,2.8921,0,0,0,0,0,0,2.8308,2.8341,2.8325,2.8424,2.8458,2.8489,2.854,2.8522,2.8567,2.8559,2.8551,2.856,2.865,2.8666,2.8614,2.8772,2.8717,2.8729,2.8758,2.8775,2.8788,2.8782,2.8558,0,0,0,0,0,2.8332,2.8388,2.8414,2.8499,2.8517,2.8526,2.8557,2.8551,2.8586,2.86,2.8619,2.8654,2.8707,2.8742,2.8792,2.8897,2.8904,2.8945,2.8959,2.897,2.898,2.9038,2.9056,2.8859,2.8859,2.8859,0,0,2.8382,2.8407,2.8443,2.8511,2.8536,2.8595,2.8538,2.8602,2.8646,2.8609,2.8692,2.8708,2.8746,2.8842,2.8885,2.8858,2.9037,2.8981,2.8989,2.8994,2.9049,2.9067,2.9084,2.8865,2.8864,2.8863,0,0,2.8502,2.8527,2.8601,2.8628,2.8668,2.8674,2.8692,2.8726,2.8736,2.8819,2.8793,2.8845,2.8936,2.8965,2.8991,2.9126,2.9103,2.9142,2.9213,2.927,2.9285,2.9299,2.9347,2.9364,2.9153,2.9153,2.9153,0,2.8559,2.8646,2.8641,2.8708,2.8739,2.871,2.8785,2.8811,2.8866,2.8888,2.8857,2.8973,2.8996,2.9099,2.9132,2.9155,2.9175,2.9137,2.9283,2.9297,2.931,2.9356,2.9374,2.9158,2.9157,2.9157,2.9156,0,2.8714,2.8776,2.883,2.8885,2.8922,2.8992,2.8998,2.9037,2.9028,2.9037,2.9123,2.915,2.9206,2.923,2.9222,2.9333,2.9315,2.9284,2.9228,2.9333,2.9376,2.9394,2.9164,2.9163,2.9161,2.916,0,0,2.887,2.8923,2.8943,2.8968,2.9011,2.9058,2.9128,2.9183,2.9217,2.9256,2.9314,2.9394,2.9366,2.9397,2.9391,2.9441,2.9546,2.9404,2.9405,2.9429,2.9671,2.9694,2.9714,2.9532,2.9535,2.9538,2.9668,0,2.8994,2.9116,2.9114,2.9227,2.9284,2.9259,2.932,2.9353,2.9364,2.9414,2.9427,2.9483,2.9442,2.9461,2.9509,2.9523,2.9595,2.9514,2.9586,2.9589,2.9577,2.9736,2.976,2.9881,2.9685,2.9688,2.969,0,2.9154,2.9199,2.9318,2.9355,2.9379,2.9433,2.9485,2.9533,2.9571,2.9576,2.9611,2.9598,2.967,2.9613,2.9711,2.9657,2.9686,2.9698,2.9703,2.9709,2.9645,2.9746,2.992,2.9938,2.9716,2.9714,2.9712,0,2.9256,2.9347,2.9431,2.9453,2.9497,2.9536,2.9557,2.9591,2.9625,2.967,2.9693,2.9745,2.9774,2.9815,2.9818,2.9776,2.9917,2.986,2.9923,2.9923,2.9953,2.9951,3.0133,2.9973,2.9973,2.9973,2.9972,0,2.9394,2.9467,2.9477,2.9528,2.9611,2.9609,2.9691,2.9707,2.9739,2.9793,2.9774,2.9825,2.9826,2.9878,2.988,2.9962,2.9975,2.9981,2.9981,2.9982,2.9982,3.0001,2.9992,2.9977,2.9976,2.9975,2.9975,0,2.9521,2.9531,2.962,2.9656,2.9666,2.9726,2.9756,2.9805,2.9816,2.9885,2.9901,2.9917,2.9978,2.9985,3.0055,3.0057,3.0155,3.0146,3.0143,3.0141,3.0203,3.0197,3.0404,3.0431,3.0254,3.0256,3.0257,0,2.9608,2.9664,2.9707,2.9742,2.9765,2.9822,2.9857,2.9858,2.9895,2.9944,2.9987,3.0047,3.0094,3.0193,3.0211,3.0265,3.0257,3.0326,3.0265,3.0265,3.0258,3.0254,3.026,3.0337,3.0339,3.0341,3.0342,0,2.9761,2.9764,2.9815,2.9869,2.9912,2.9954,2.9994,3.0024,3.003,3.0073,3.0135,3.0172,3.0246,3.0305,3.0359,3.038,3.0362,3.0361,3.0379,3.0381,3.0376,3.038,3.0175,3.0356,3.0355,3.0354,3.0353,3.0352,2.9871,2.992,2.9958,3.0017,3.0047,3.0085,3.0133,3.0151,3.0203,3.0263,3.0261,3.033,3.0368,3.0439,3.0464,3.0518,3.0495,3.052,3.0526,3.0533,3.0539,3.0369,3.0528,3.0528,3.0527,3.0527,3.0527,0,3.0023,3.0047,3.0101,3.0158,3.0204,3.0185,3.0228,3.0268,3.0329,3.0367,3.0414,3.0487,3.0545,3.0569,3.0626,3.0665,3.0658,3.0679,3.0676,3.0681,3.0556,3.0535,3.0684,3.0684,3.0684,3.0684,3.0684,3.0684,3.0108,3.0191,3.0198,3.0297,3.032,3.0388,3.0415,3.045,3.0479,3.0562,3.061,3.0626,3.0658,3.0717,3.077,3.0775,3.0797,3.0822,3.0824,3.0706,3.069,3.0675,3.0655,3.0827,3.0827,3.0945,3.0946,3.0947]},{"header":{"parameterUnit":"m.s-1","parameterCategory":1,"la1":30.2991,"la2":30.254,"lo1":-89.0895,"lo2":-89.0444,"dy":0.0017,"dx":0.0017,"nx":28,"ny":28,"refTime":"2024-07-10T09:00:00:Z","depth":0,"parameterNumber":3,"parameterNumberName":"V-component_of_WINDS"},"data":[0,0,0,0,0,0,0,0,0,0,0,0,0,0,0,0,0,0,0,0,0,0,0,0,0,0,0,0,0,0,0,0,0,0,0,0,0,0,0,0,0,0,0,0,0,0,0,0,0,0,0,0,0,0,0,0,0,0,-1.5013,-1.5013,0,-1.5006,-1.5006,-1.5006,-1.4981,-1.4981,-1.498,-1.498,-1.4973,-1.4973,-1.4974,0,0,0,0,0,0,0,0,0,0,0,0,0,-1.5005,-1.5006,-1.5013,-1.5013,-1.5013,-1.5006,-1.5006,-1.5006,-1.4981,-1.4981,-1.498,-1.4979,-1.4973,-1.4973,-1.4974,0,0,0,0,0,0,0,0,0,0,0,0,0,-1.5005,-1.5006,-1.5013,-1.5,-1.4999,-1.5006,-1.5006,-1.5006,-1.4982,-1.4981,-1.498,-1.4979,-1.4973,-1.4973,-1.4974,-1.4994,0,0,-1.4975,-1.4976,0,0,0,0,0,0,0,0,-1.5005,-1.5005,-1.5002,-1.5001,-1.4999,-1.4994,-1.5001,-1.5002,-1.4982,-1.4988,-1.498,-1.4979,-1.4981,-1.498,-1.4981,-1.4993,-1.4993,-1.4975,-1.4976,-1.4976,-1.4976,0,0,0,0,0,0,0,-1.5005,-1.5005,-1.501,-1.5002,-1.5,-1.4994,-1.4993,-1.5001,-1.4989,-1.4987,-1.4986,-1.4985,-1.498,-1.4981,-1.4981,-1.4993,-1.4975,-1.4976,-1.4976,-1.4976,-1.5021,-1.5022,0,0,0,0,0,0,-1.5007,-1.5005,-1.5011,-1.501,-1.5,-1.4995,-1.4994,-1.4996,-1.4989,-1.4987,-1.4986,-1.4984,-1.498,-1.498,-1.498,-1.5003,-1.4976,-1.4976,-1.4977,-1.502,-1.5021,-1.5022,0,0,0,0,0,0,-1.5007,-1.5007,-1.5011,-1.5007,-1.5007,-1.4996,-1.4999,-1.4997,-1.4997,-1.4988,-1.4986,-1.4989,-1.4979,-1.498,-1.499,-1.5002,-1.4977,-1.4977,-1.5019,-1.5021,-1.5022,-1.5048,0,0,0,0,0,0,-1.5007,-1.5008,-1.5015,-1.5008,-1.5008,-1.5021,-1.5,-1.4997,-1.4998,-1.4996,-1.499,-1.4988,-1.4979,-1.499,-1.4991,-1.5002,-1.4977,-1.5018,-1.502,-1.5021,-1.5046,-1.505,-1.5054,0,0,0,0,0,-1.5006,-1.5023,-1.5015,-1.5016,-1.5017,-1.5022,-1.5022,-1.5011,-1.4999,-1.5007,-1.5001,-1.4988,-1.5001,-1.4991,-1.4992,-1.5004,-1.5017,-1.5019,-1.5021,-1.5044,-1.5049,-1.5054,0,0,0,0,0,0,-1.5032,-1.5022,-1.5013,-1.5028,-1.5026,-1.5018,-1.5027,-1.5016,-1.5017,-1.5015,-1.5001,-1.5,-1.5013,-1.501,-1.4999,-1.5023,-1.5007,-1.5009,-1.5024,-1.5029,-1.5033,-1.5033,-1.4978,0,0,0,0,0,-1.5039,-1.5044,-1.5035,-1.5049,-1.5048,-1.5038,-1.504,-1.5031,-1.5029,-1.5028,-1.5022,-1.502,-1.5024,-1.5026,-1.5029,-1.5046,-1.5044,-1.5054,-1.5058,-1.5061,-1.5063,-1.5071,-1.5076,-1.5029,-1.5029,-1.5029,0,0,-1.5055,-1.505,-1.5054,-1.5054,-1.5051,-1.5057,-1.5037,-1.5044,-1.5048,-1.5029,-1.5038,-1.5035,-1.5031,-1.5045,-1.5051,-1.5043,-1.5076,-1.5064,-1.5066,-1.5067,-1.5074,-1.5078,-1.5082,-1.503,-1.503,-1.503,0,0,-1.5085,-1.5082,-1.5093,-1.5091,-1.5087,-1.508,-1.5083,-1.5076,-1.5072,-1.5082,-1.5067,-1.5072,-1.5078,-1.5077,-1.5077,-1.5106,-1.5095,-1.5108,-1.5127,-1.5135,-1.5139,-1.5142,-1.5152,-1.5156,-1.511,-1.511,-1.511,0,-1.5104,-1.5112,-1.51,-1.5107,-1.5108,-1.5091,-1.5101,-1.51,-1.5098,-1.5098,-1.5089,-1.5096,-1.5093,-1.5106,-1.5113,-1.5114,-1.5117,-1.5108,-1.5139,-1.5142,-1.5145,-1.5154,-1.5158,-1.5111,-1.5111,-1.5111,-1.5111,0,-1.5136,-1.5141,-1.5151,-1.5148,-1.515,-1.5159,-1.5148,-1.5151,-1.5143,-1.5137,-1.5146,-1.5142,-1.5143,-1.5146,-1.5138,-1.5158,-1.5152,-1.5142,-1.5125,-1.5151,-1.516,-1.5163,-1.5114,-1.5113,-1.5113,-1.5112,0,0,-1.5182,-1.5172,-1.5176,-1.5175,-1.5169,-1.5173,-1.5182,-1.5183,-1.5185,-1.5185,-1.5191,-1.5197,-1.5186,-1.5186,-1.5178,-1.5185,-1.5208,-1.5173,-1.5173,-1.5179,-1.5229,-1.5237,-1.5241,-1.5201,-1.5202,-1.5202,-1.5229,0,-1.521,-1.5224,-1.5213,-1.5228,-1.5233,-1.5217,-1.5224,-1.5222,-1.5216,-1.522,-1.5214,-1.5218,-1.5204,-1.5204,-1.521,-1.5204,-1.5218,-1.5202,-1.5207,-1.5207,-1.5207,-1.5246,-1.5254,-1.528,-1.5233,-1.5233,-1.5234,0,-1.5245,-1.5245,-1.5261,-1.5254,-1.5256,-1.5262,-1.5262,-1.5266,-1.5263,-1.5258,-1.5258,-1.5248,-1.5255,-1.524,-1.525,-1.524,-1.5241,-1.5238,-1.5239,-1.5238,-1.5221,-1.5246,-1.5288,-1.5291,-1.5239,-1.5239,-1.5238,0,-1.5276,-1.528,-1.529,-1.5289,-1.5282,-1.5287,-1.5284,-1.528,-1.5282,-1.5282,-1.5282,-1.5283,-1.5284,-1.5285,-1.5275,-1.5265,-1.5286,-1.527,-1.5283,-1.5283,-1.5287,-1.5287,-1.5329,-1.5289,-1.5289,-1.5289,-1.5289,0,-1.5308,-1.5319,-1.5304,-1.531,-1.5321,-1.5308,-1.532,-1.5315,-1.5312,-1.5317,-1.5303,-1.5308,-1.5295,-1.5298,-1.5291,-1.53,-1.5301,-1.5297,-1.5295,-1.5298,-1.5298,-1.5298,-1.5296,-1.529,-1.529,-1.529,-1.529,0,-1.5345,-1.5335,-1.5345,-1.5337,-1.5335,-1.5344,-1.5337,-1.5342,-1.5336,-1.5342,-1.5343,-1.5333,-1.5336,-1.5327,-1.5329,-1.5324,-1.5337,-1.5332,-1.5338,-1.5336,-1.5349,-1.5348,-1.5392,-1.5397,-1.5354,-1.5355,-1.5355,0,-1.5366,-1.5373,-1.5366,-1.5368,-1.5366,-1.537,-1.5371,-1.5359,-1.5361,-1.5357,-1.5363,-1.5365,-1.5366,-1.5372,-1.5365,-1.5367,-1.5362,-1.5377,-1.5362,-1.5364,-1.5361,-1.536,-1.5361,-1.538,-1.5381,-1.5381,-1.5381,0,-1.5404,-1.5399,-1.5401,-1.5401,-1.5402,-1.5402,-1.5401,-1.5403,-1.5391,-1.5393,-1.5396,-1.5397,-1.5399,-1.5401,-1.5401,-1.5398,-1.5388,-1.5386,-1.5389,-1.5392,-1.5395,-1.5393,-1.5346,-1.5385,-1.5385,-1.5385,-1.5384,-1.5384,-1.5433,-1.5438,-1.5434,-1.5436,-1.5434,-1.5433,-1.5438,-1.5432,-1.5434,-1.5434,-1.5427,-1.5432,-1.5428,-1.5427,-1.5425,-1.5429,-1.5421,-1.5426,-1.5427,-1.5428,-1.5429,-1.5395,-1.5429,-1.5428,-1.5428,-1.5428,-1.5428,0,-1.5469,-1.5466,-1.5468,-1.5467,-1.5469,-1.5458,-1.5456,-1.5459,-1.5463,-1.546,-1.5462,-1.5465,-1.5467,-1.546,-1.5461,-1.5465,-1.546,-1.5466,-1.5465,-1.5465,-1.5436,-1.5433,-1.547,-1.547,-1.547,-1.547,-1.547,-1.547,-1.5489,-1.5497,-1.5492,-1.5499,-1.5496,-1.55,-1.5499,-1.5498,-1.5496,-1.5501,-1.5502,-1.5498,-1.5493,-1.5494,-1.5495,-1.5493,-1.5494,-1.5501,-1.5498,-1.5471,-1.5467,-1.5463,-1.546,-1.5502,-1.5502,-1.5526,-1.5526,-1.5526]}]]